Regional Weather Roundup
Issued by NWS

Home | Current Version | Previous Version | Text Only | Print | Product List | Glossary On
Versions: 1 2 3 4 5 6 7 8 9 10 11 12 13 14 15 16 17 18 19 20 21 22 23 24 25 26 27 28 29 30 31 32 33 34 35 36 37 38 39 40 41 42 43 44 45 46 47 48 49 50
000
ASUS43 KLMK 122010
RWRKY
KENTUCKY REGIONAL WEATHER ROUNDUP
NATIONAL WEATHER SERVICE LOUISVILLE KY
400 PM EDT SAT JUL 12 2014

NOTE "FAIR" INDICATES FEW OR NO CLOUDS BELOW 12,000 FEET
WITH NO SIGNIFICANT WEATHER AND/OR OBSTRUCTIONS TO VISIBILITY.

KYZ001>023-026-027-061>063-070>075-122100-
WESTERN AND SOUTH CENTRAL KENTUCKY

CITY           SKY/WX    TMP DP  RH WIND       PRES   REMARKS
PADUCAH        CLOUDY    90  75  61 S8        30.11F HX 100
HENDERSON      CLOUDY    79  73  83 S9        30.12F
OWENSBORO      LGT RAIN  84  74  72 SW7       30.14F HX  91
HOPKINSVILLE   NOT AVBL
BOWLING GREEN  CLOUDY    92  64  39 NE3       30.15F HX  93
GLASGOW        PTSUNNY   92  59  33 SW7       30.16F HX  91
$$

KYZ024-025-028>034-038-045-046-053-122100-
NORTH CENTRAL KENTUCKY

CITY           SKY/WX    TMP DP  RH WIND       PRES   REMARKS
LOUISVILLE/SDF CLOUDY    89  65  44 SW12      30.13F HX  91
LOUISVILLE/LOU CLOUDY    88  64  44 W8        30.14F
FORT KNOX      NOT AVBL
$$

KYZ035>037-039>044-047>052-055>060-089>105-122100-
NORTHEAST KENTUCKY

CITY           SKY/WX    TMP DP  RH WIND       PRES   REMARKS
LEXINGTON      CLOUDY    88  62  41 SW7       30.18F
COVINGTON      CLOUDY    83  64  52 W9        30.15F
FRANKFORT      CLOUDY    86  64  47 CALM      30.15F
$$

KYZ054-064>069-076>088-106>120-122100-
SOUTHEAST KENTUCKY

CITY           SKY/WX    TMP DP  RH WIND       PRES   REMARKS
JACKSON        MOSUNNY   90  50  25 CALM      30.20F
LONDON         MOSUNNY   90  57  32 NW7       30.20F
SOMERSET       CLOUDY    90  50  25 N3        30.18F
MIDDLESBORO    MOSUNNY   88  62  40 N3        30.20F
MONTICELLO     MOCLDY    91  59  34 CALM      30.20F HX  90
$$




USA.gov is the U.S. government's official web portal to all federal, state and local government web resources and services.